Location: ???????
(54.6339°N, 39.4245°E)
Time: 17:28:20
(UTC+00:00)

Cosmos 1867 - Pass Details

Date: 19 May 2025
Orbit: 775 x 798 km, 65.0° (Epoch: 21 June)

Event Time Altitude Azimuth Distance (km) Brightness Sun altitude
Rises 18:06:13 0° 313° (NW) 3,315 9.9 -4.9°
Reaches altitude 10° 18:08:40 10° 313° (NW) 2,381 8.0 -5.1°
Maximum altitude 18:14:09 84° 227° (SW) 809 3.7 -5.7°
Drops below altitude 10° 18:19:36 10° 139° (SE) 2,362 5.3 -6.2°
Enters shadow 18:20:09 - 139° (SE) 2,566 5.5 -6.2°
